Location: Jewell
(31.5029°N, 97.1961°W)
Time: 15:49:53
(UTC+00:00)

Hubble Space Telescope - Visible Passes

Search period start: 07 December 2025 00:00
Search period end: 17 December 2025 00:00
Orbit: 481 x 483 km, 28.5° (Epoch: 06 December)

Date Brightness Start Highest point End Pass type
(mag) Time Alt. Az. Time Alt. Az. Time Alt. Az.
07 Dec 2.6 01:15:23 10° SSW 01:17:30 19° S 01:17:30 19° S visible
08 Dec 2.3 00:46:16 10° SSW 00:49:07 20° SSE 00:50:06 18° SE visible
09 Dec 2.4 00:17:07 10° SSW 00:19:59 20° SSE 00:22:39 11° ESE visible
09 Dec 3.4 01:55:55 10° WSW 01:56:50 16° WSW 01:56:50 16° WSW visible
09 Dec 2.5 23:47:57 10° SSW 23:50:51 21° SSE 23:53:45 10° ESE visible
10 Dec 1.9 01:26:46 10° WSW 01:29:21 35° SW 01:29:21 35° SW visible
11 Dec 1.1 00:57:35 10° WSW 01:01:14 46° S 01:01:51 41° SE visible
12 Dec 1.2 00:28:24 10° WSW 00:32:03 46° S 00:34:20 20° ESE visible
12 Dec 3.8 02:08:04 10° W 02:08:30 13° W 02:08:30 13° W visible
12 Dec 1.3 23:59:12 10° WSW 00:02:50 46° S 00:06:30 10° E visible
13 Dec 2.4 01:38:52 10° W 01:40:59 29° WSW 01:40:59 29° WSW visible
14 Dec 1.0 01:09:38 10° W 01:13:19 50° S 01:13:30 50° S visible
15 Dec 1.2 00:40:23 10° W 00:44:04 50° S 00:46:02 24° ESE visible
16 Dec 1.3 00:11:07 10° W 00:14:47 50° S 00:18:28 10° ESE visible
16 Dec 3.1 01:51:13 10° WSW 01:52:49 19° SW 01:52:49 19° SW visible
